This is the latest recevied weather packets stored in our database for station/object OE3PDB-3. If no packets are shown the sender has not sent any weather packets the latest 10 day(s).
| Time | Temp. | Humidity | Pressure | Rain* | Wind** | Luminosity | Snow |
|---|---|---|---|---|---|---|---|
| 1787667029 | 21.67° C | 57% | 1012.4 hPa | 0 mm | - | - | - |
| 1787666429 | 21.11° C | 56% | 1012.2 hPa | 0 mm | - | - | - |
| 1787665829 | 21.11° C | 57% | 1012.2 hPa | 0 mm | - | - | - |
| 1787665229 | 21.11° C | 57% | 1012.1 hPa | 0 mm | - | - | - |
| 1787664629 | 21.67° C | 56% | 1012.1 hPa | 0 mm | - | - | - |
| 1787664029 | 22.78° C | 52% | 1012 hPa | 0 mm | - | - | - |
| 1787663429 | 22.78° C | 49% | 1011.8 hPa | 0 mm | - | - | - |
| 1787662829 | 23.33° C | 48% | 1011.8 hPa | 0 mm | - | - | - |
| 1787662229 | 23.33° C | 46% | 1011.7 hPa | 0 mm | - | - | - |
| 1787661629 | 23.33° C | 46% | 1011.6 hPa | 0 mm | - | - | - |
| 1787661029 | 23.33° C | 46% | 1011.7 hPa | 0 mm | - | - | - |
| 1787660429 | 23.33° C | 47% | 1011.7 hPa | 0 mm | - | - | - |
| 1787659829 | 22.78° C | 48% | 1011.6 hPa | 0 mm | - | - | - |
| 1787659229 | 22.78° C | 49% | 1011.3 hPa | 0 mm | - | - | - |
| 1787658629 | 22.22° C | 50% | 1011.2 hPa | 0 mm | - | - | - |
| 1787658029 | 22.22° C | 50% | 1011 hPa | 0 mm | - | - | - |
| 1787657429 | 22.22° C | 50% | 1011 hPa | 0 mm | - | - | - |
| 1787656829 | 21.67° C | 50% | 1011.3 hPa | 0 mm | - | - | - |
| 1787656229 | 21.67° C | 51% | 1011.3 hPa | 0 mm | - | - | - |
| 1787655629 | 21.67° C | 51% | 1011.3 hPa | 0 mm | - | - | - |
| 1787655029 | 21.67° C | 51% | 1011.2 hPa | 0 mm | - | - | - |
| 1787654429 | 21.67° C | 52% | 1011.4 hPa | 0 mm | - | - | - |
| 1787653830 | 21.11° C | 51% | 1011.4 hPa | 0 mm | - | - | - |
| 1787653230 | 21.11° C | 52% | 1011.3 hPa | 0 mm | - | - | - |
| 1787652630 | 21.11° C | 51% | 1011.4 hPa | 0 mm | - | - | - |
* Rain latest hour (hover to see other rain measurements)
** Current wind speed in m/s (hover to see current wind gust speed)